Location: Basarabasa
(46.2000°N, 22.5833°E)
Time: 14:53:27
(UTC+00:00)

Daily predictions for brighter satellites

Satellite Brightness Start Highest point End
(mag) Time Altitude Azimuth Time Altitude Azimuth Time Altitude Azimuth
YAOGAN 1 3.7 17:24:53 10° S 17:29:05 50° W 17:33:19 10° NNW
STARLINK-1119 4.4 17:25:08 10° WNW 17:29:09 50° SW 17:33:08 10° SE
SL-14 R/B 4.0 17:26:43 10° NNW 17:30:43 61° W 17:34:39 10° S
SJ-6B 3.8 17:28:45 10° SE 17:32:23 31° ENE 17:36:03 10° N
ISS -3.0 17:29:50 10° WNW 17:33:07 50° SW 17:36:23 10° SE
STARLINK-1114 4.5 17:30:07 10° WNW 17:34:06 46° SW 17:38:04 10° SE
Cosmos 1626 Rocket 3.6 17:30:42 10° N 17:35:06 90° W 17:39:26 10° S
ATLAS 2AS CENTAUR R/B 3.5 17:28:06 10° NNW 17:35:24 43° NE 17:42:09 10° ESE
Cosmos 1603 3.9 17:30:51 10° S 17:36:15 49° ESE 17:41:38 10° NE
USA 234 4.4 17:34:33 10° ENE 17:39:09 20° ESE 17:43:44 10° SSE
USA 186 2.2 17:37:52 10° SE 17:41:04 43° ENE 17:44:09 10° N
Ariane Rocket 3.0 17:36:29 10° SSE 17:41:31 71° ENE 17:46:34 10° N
Meteor 1-21 Rocket 4.2 17:37:17 10° N 17:42:48 64° ENE 17:48:17 10° SSE
MOS 1 4.4 17:37:58 10° SSE 17:43:30 58° ENE 17:49:03 10° N
Cosmos 2315 Rocket 4.2 17:38:46 10° S 17:45:06 86° W 17:51:32 10° N
Cosmos 1602 Rocket 3.6 17:41:17 10° N 17:45:45 89° WSW 17:50:08 10° S
Cosmos 1758 3.6 17:41:56 10° SSW 17:46:01 78° W 17:50:08 10° N
Resurs 01 Rocket 3.2 17:44:17 10° ESE 17:47:21 19° ENE 17:50:26 10° NNE
IRIDIUM 114 4.5 17:43:00 10° N 17:48:08 54° E 17:53:14 10° SSE
FREGAT/IRIS 2.5 17:45:46 10° SSE 17:48:25 51° ENE 17:51:05 10° N
GEOS 3 Rocket 4.4 17:45:18 10° SSE 17:50:16 52° SW 17:55:24 10° NW
Aureole 3 4.0 17:45:57 10° S 17:50:30 74° E 17:56:25 10° NNE
SeaSat 1 3.3 17:47:15 10° NNE 17:52:06 57° WNW 17:56:54 10° SW
HJ-1C 4.4 17:49:36 10° S 17:52:52 50° W 17:56:11 10° NNW
ATLAS 5 CENTAUR R/B 3.1 17:52:34 10° SE 17:54:49 14° ESE 17:57:12 10° ENE
SL-4 R/B 2.2 17:51:51 10° SSW 17:54:57 33° SE 17:58:04 10° ENE
Cosmos 1726 Rocket 4.4 17:52:39 10° SSE 17:56:27 29° E 18:00:17 10° NNE
IRIDIUM 103 4.3 17:52:08 10° N 17:57:21 65° E 18:02:32 10° SSE
Cosmos 1626 4.4 17:54:54 10° NNW 17:58:06 28° W 18:01:18 10° SSW
Cosmos 1340 Rocket 4.3 17:57:19 12° SE 17:59:44 19° E 18:02:34 10° NE
CZ-4 R/B 4.3 17:58:25 10° SW 18:00:53 16° W 18:03:22 10° NW
Cosmos 1825 Rocket 3.7 17:58:28 10° N 18:02:49 54° ENE 18:07:05 10° SSE
Cosmos 1328 4.4 18:00:38 10° N 18:04:24 38° ENE 18:07:39 13° SE
Cosmos 292 Rocket 4.3 18:00:07 10° NNW 18:04:52 62° WSW 18:09:37 10° S
SL-8 R/B 4.1 18:02:43 10° WNW 18:07:23 56° SSW 18:11:11 15° SE
Cosmos 614 Rocket 4.5 18:03:06 10° SSE 18:07:52 37° ESE 18:12:39 10° NE
BREEZE-M DEB (TANK) 3.9 18:00:42 10° WNW 18:08:02 69° NNE 18:10:14 18° E
Cosmos 1943 Rocket 3.0 18:02:39 10° NW 18:08:02 52° WSW 18:13:25 10° S
Cosmos 2074 Rocket 4.0 18:01:55 10° N 18:08:13 73° E 18:14:30 10° SSE
COSMOS 2455 3.9 18:04:05 10° NNW 18:09:24 31° NE 18:13:30 15° E
Cosmos 2369 Rocket 2.6 18:04:05 10° NNW 18:09:45 68° WSW 18:15:20 10° SSE
Cosmos 1703 3.6 18:06:12 10° N 18:10:02 45° ENE 18:13:16 14° SSE
SPOT 3 Rocket 3.7 18:05:30 10° SSE 18:10:35 56° ENE 18:15:41 10° N
SL-24 R/B 4.1 18:10:22 10° NNE 18:14:25 46° E 18:18:03 10° S
Cosmos 1758 Rocket 3.5 18:11:14 10° N 18:15:35 87° ENE 18:19:54 10° S
IRIDIUM 106 4.4 18:10:23 10° N 18:15:38 88° W 18:20:52 10° S
CZ-2C R/B 3.8 18:13:23 10° NNE 18:18:03 55° E 18:22:35 10° S
Cosmos 921 Rocket 4.2 18:15:21 10° N 18:18:49 25° ENE 18:20:23 20° E
Cosmos 407 Rocket 3.9 18:14:09 10° S 18:18:52 38° ESE 18:23:35 10° NE
Abrixas rocket 2.5 18:16:03 10° W 18:18:58 52° N 18:20:44 20° ENE
Cosmos 1953 3.0 18:17:55 10° SSW 18:21:49 57° WNW 18:25:46 10° N
Cosmos 2228 2.9 18:18:42 10° S 18:22:56 64° E 18:27:14 10° NNE
Cosmos 1437 2.9 18:20:00 10° NNW 18:23:00 67° W 18:25:53 11° S
Cosmos 1953 Rocket 3.6 18:18:42 10° N 18:23:09 60° ENE 18:26:49 15° SSE
Cosmos 1610 Rocket 4.5 18:18:04 10° N 18:24:14 63° E 18:30:14 10° SSE
Cosmos 1606 Rocket 3.5 18:20:51 10° S 18:25:14 73° E 18:29:43 10° NNE
Cosmos 1818 3.5 18:20:37 10° SSW 18:26:02 79° ESE 18:31:31 10° NE
Cosmos 1908 3.2 18:24:03 10° S 18:27:50 59° E 18:31:40 10° NNE
Meteor 1-11 4.3 18:27:01 10° N 18:32:46 65° ENE 18:37:14 17° SSE
BREEZE M DEB (TANK) 3.9 18:22:08 10° SW 18:32:59 56° SSE 18:35:24 22° E
SL-08 RB Rocket 3.9 18:28:35 10° S 18:33:07 75° WSW 18:37:44 10° NNW
Cosmos 1943 3.4 18:28:43 10° SSW 18:34:22 77° WNW 18:40:06 10° NNE
CZ-2C R/B 3.9 18:33:03 10° S 18:37:47 47° W 18:42:24 10° NNW
APEX 4.4 18:31:47 10° NNW 18:38:29 69° ENE 18:41:48 26° SE
BREEZE-M DEB (TANK) 2.1 18:35:28 10° WSW 18:40:06 64° NNW 18:41:06 32° NE
Cosmos 1461 3.5 18:37:15 10° NNW 18:41:39 49° NE 18:43:27 31° ESE
Cosmos 1295 Rocket 4.5 18:38:46 10° N 18:45:03 67° E 18:49:36 20° SSE
H-2A R/B 3.5 18:42:48 10° SSW 18:47:37 37° W 18:52:21 10° NNW
Cosmos 1023 Rocket 4.5 18:45:50 10° S 18:50:52 55° ESE 18:55:54 10° NNE
SAR-Lupe-2 4.4 18:49:46 10° NNE 18:52:17 33° ENE 18:52:17 33° ENE
NOSS 3-4 (A) 3.8 18:47:23 10° NW 18:54:24 88° NE 18:58:54 28° SE
NOSS 3-4 (C) 3.8 18:47:29 10° NW 18:54:30 88° NE 18:58:59 28° SE
Cosmos 1656 Rocket 4.1 18:50:07 10° NNW 18:55:42 60° WSW 18:59:39 19° S
SPOT 5 4.3 18:57:34 18° ENE 18:57:34 18° ENE 19:00:22 10° NNE
CZ-2C R/B 2.4 18:52:32 10° NNE 18:57:44 80° ESE 19:02:56 10° S
Cosmos 2341 Rocket 4.1 18:52:04 10° N 18:58:25 63° ENE 19:01:44 29° SSE
Resurs 1-3 3.9 18:55:38 20° S 18:58:34 65° WSW 19:02:57 10° NNW
Aureole 1 Rocket 4.1 18:52:31 10° SSW 19:00:17 89° ESE 19:06:24 10° NNE
STARLINK-1228 3.7 18:58:28 10° NW 19:01:05 38° NNE 19:01:05 38° NNE
Cosmos 1726 4.4 18:59:24 10° SW 19:02:35 26° WNW 19:05:46 10° NNW
Cosmos 2058 4.1 19:05:08 10° N 19:08:05 28° NE 19:08:05 28° NE
STARLINK-60 3.8 19:05:37 10° SW 19:07:54 42° SW 19:07:54 42° SW
STARLINK-1233 4.0 19:08:25 10° NW 19:11:11 37° N 19:11:11 37° N
BREEZE M DEB (TANK) 3.1 19:08:17 10° SW 19:11:32 50° SE 19:20:36 10° ENE
STARLINK-1212 4.0 19:08:53 10° NW 19:11:36 37° N 19:11:36 37° N
STARLINK-1105 4.0 19:09:19 10° NW 19:12:03 38° N 19:12:03 38° N
STARLINK-1206 4.0 19:09:49 10° NW 19:12:28 37° N 19:12:28 37° N
STARLINK-1247 4.1 19:10:16 10° NW 19:12:54 37° N 19:12:54 37° N
STARLINK-1227 4.0 19:10:40 10° NW 19:13:20 38° N 19:13:20 38° N
STARLINK-1218 4.1 19:11:10 10° NW 19:13:47 37° N 19:13:47 37° N
STARLINK-1226 4.1 19:11:36 10° NW 19:14:12 37° N 19:14:12 37° N
DMSP B5D2-2 4.5 19:09:42 10° N 19:14:52 63° WNW 19:20:02 10° SSW
STARLINK-1254 4.1 19:12:01 10° NW 19:14:38 38° N 19:14:38 38° N
STARLINK-1215 4.1 19:12:31 10° NW 19:15:04 37° N 19:15:04 37° N
Terra 3.3 19:16:09 22° ENE 19:16:09 22° ENE 19:19:32 10° NNE
STARLINK-1231 4.1 19:12:57 10° NW 19:15:30 37° N 19:15:30 37° N
Cosmos 2218 Rocket 4.2 19:09:57 10° N 19:16:01 53° ENE 19:17:37 42° ESE
STARLINK-1232 4.1 19:13:52 10° NW 19:16:22 37° N 19:16:22 37° N
STARLINK-1217 4.1 19:14:18 10° NW 19:16:48 37° N 19:16:48 37° N
STARLINK-1208 4.1 19:14:43 10° NW 19:17:15 38° N 19:17:15 38° N
STARLINK-1229 4.2 19:15:12 10° NW 19:17:39 37° N 19:17:39 37° N
STARLINK-1271 4.2 19:15:39 10° NW 19:18:07 37° N 19:18:07 37° N
STARLINK-1234 4.1 19:15:44 10° NW 19:17:59 38° NNW 19:17:59 38° NNW
STARLINK-1270 4.2 19:16:07 10° NW 19:18:33 37° N 19:18:33 37° N
Cosmos 1980 Rocket 4.4 19:17:02 10° N 19:19:25 13° NE 19:21:25 11° ENE
STARLINK-1154 4.2 19:16:33 10° NW 19:18:57 37° N 19:18:57 37° N
STARLINK-1197 4.2 19:17:28 10° NW 19:19:50 36° NNW 19:19:50 36° NNW
Cosmos 2058 Rocket 3.6 19:16:34 12° SSW 19:20:38 59° WNW 19:25:07 10° N
STARLINK-1189 4.2 19:17:54 10° NW 19:20:16 36° NNW 19:20:16 36° NNW
STARLINK-1198 4.3 19:18:21 10° NW 19:20:42 36° NNW 19:20:42 36° NNW
STARLINK-1209 4.3 19:18:36 10° NW 19:20:38 36° NNW 19:20:38 36° NNW
STARLINK-1188 4.3 19:18:48 10° NW 19:21:08 36° NNW 19:21:08 36° NNW
STARLINK-1235 4.1 19:19:25 10° NW 19:21:46 40° NNW 19:21:46 40° NNW
MOS 1 Rocket 4.1 19:17:28 10° N 19:22:44 60° WNW 19:28:04 10° SSW
USA 234 3.1 19:16:22 10° NE 19:22:55 71° SE 19:29:27 10° SW
STARLINK-1187 4.2 19:19:51 10° NW 19:22:12 38° NNW 19:22:12 38° NNW
Resurs 01 Rocket 2.3 19:21:42 31° SSW 19:23:29 51° W 19:27:48 10° NNW
STARLINK-1199 4.3 19:20:44 10° NW 19:23:03 36° NNW 19:23:03 36° NNW
STARLINK-1191 4.3 19:21:12 10° NW 19:23:29 36° NNW 19:23:29 36° NNW
STARLINK-1210 4.3 19:21:38 10° NW 19:23:55 36° NNW 19:23:55 36° NNW
STARLINK-1221 4.4 19:22:06 10° NW 19:24:21 36° NNW 19:24:21 36° NNW
STARLINK-1219 4.4 19:22:32 10° NW 19:24:47 36° NNW 19:24:47 36° NNW
STARLINK-1222 4.4 19:22:59 10° NW 19:25:13 35° NNW 19:25:13 35° NNW
STARLINK-1211 4.4 19:23:27 10° NW 19:25:39 35° NNW 19:25:39 35° NNW
ATLAS 2AS CENTAUR R/B 3.1 19:19:20 10° NW 19:26:44 60° WSW 19:29:59 32° S
STARLINK-1214 4.4 19:23:54 10° NW 19:26:05 35° NNW 19:26:05 35° NNW
STARLINK-1245 4.5 19:24:23 10° NW 19:26:30 34° NNW 19:26:30 34° NNW
STARLINK-1238 4.4 19:24:47 10° NW 19:26:57 35° NNW 19:26:57 35° NNW
Cosmos 1892 4.2 19:24:36 10° N 19:26:53 27° NNE 19:26:53 27° NNE
STARLINK-1203 4.5 19:25:37 10° NW 19:29:38 42° NNE 19:30:01 41° NNE
Cosmos 2181 Rocket 3.9 19:27:29 38° S 19:29:59 74° E 19:36:10 10° NNE
Cosmos 1190 Rocket 4.4 19:25:39 10° SSW 19:30:55 63° WNW 19:36:12 10° NNE
Iridium 4 Rocket 3.7 19:27:43 10° N 19:30:54 43° NE 19:30:54 43° NE
Cosmos 1140 Rocket 3.7 19:27:03 10° SSW 19:32:14 70° WNW 19:37:25 10° NNE
USA 245 4.2 19:30:56 52° SSE 19:32:28 87° ENE 19:38:46 10° NNW
Spot 2 Rocket 3.4 19:31:32 57° S 19:32:36 86° WSW 19:37:45 10° NNW
SL-4 R/B 2.7 19:31:04 10° W 19:33:43 43° WNW 19:33:43 43° WNW
STARLINK-1246 4.5 19:31:24 10° NW 19:35:22 41° NNE 19:35:30 41° NNE
Cosmos 1340 Rocket 4.2 19:32:48 14° SW 19:35:54 38° WNW 19:39:42 10° N
SL-8 Rocket 3.9 19:30:22 10° N 19:36:43 87° E 19:38:40 48° S
ATLAS 5 CENTAUR R/B 1.7 19:34:31 10° SW 19:38:41 69° NW 19:43:24 10° NE
Cosmos 864 Rocket 4.4 19:34:00 10° N 19:40:14 72° E 19:41:21 59° SE
STARLINK-1224 4.5 19:36:23 10° NW 19:40:17 43° NNE 19:40:17 43° NNE
STARLINK-1225 4.5 19:41:23 10° NW 19:45:05 44° N 19:45:05 44° N
Cosmos 2366 rocket 3.8 19:42:07 10° N 19:48:18 85° E 19:49:25 63° SSE
Meteor 2-12 Rocket 4.3 19:43:01 10° N 19:49:08 69° E 19:49:39 66° ESE
In-Cosmos 22 Rocket 4.2 19:43:39 10° N 19:49:32 90° W 19:50:20 68° S
Cosmos 1300 3.8 19:50:48 43° WNW 19:50:48 43° WNW 19:54:14 10° N
IGS 5A 4.0 19:53:17 57° NW 19:53:17 57° NW 19:56:45 10° NNW
Cosmos 468 Rocket 4.1 19:48:53 10° NNW 19:53:40 62° NE 19:53:40 62° NE
Cosmos 1812 Rocket 4.3 19:56:43 47° N 19:56:43 47° N 19:59:51 10° N
COSMOS 2455 3.0 19:49:47 10° NW 19:55:45 62° WSW 19:56:39 55° SSW
Cosmos 1959 Rocket 4.5 19:50:43 10° N 19:57:04 81° W 19:58:18 60° S
Cosmos 921 Rocket 4.3 19:53:24 10° NW 19:57:09 32° W 19:57:12 32° WSW
Cosmos 676 Rocket 4.5 19:56:21 26° SW 19:59:14 60° WNW 20:04:27 10° NNE
ERS-1 Rocket 3.1 20:07:39 73° NW 20:07:39 73° NW 20:12:14 10° NNW
Landsat 7 4.5 20:11:38 49° W 20:11:38 49° W 20:16:03 10° NNW
Meteor 2-1 Rocket 4.2 20:11:13 80° SW 20:11:30 84° W 20:17:28 10° N
ATLAS CENTAUR R/B 3.7 20:09:44 10° N 20:11:25 17° NNE 20:11:25 17° NNE
SPOT 1/Viking Rocket 3.9 20:14:31 57° W 20:14:31 57° W 20:19:40 10° NNW
Cosmos 2369 4.4 20:19:07 10° NNW 20:23:48 44° NNE 20:23:48 44° NNE
SL-08 R/B 4.5 20:22:26 10° NNW 20:28:33 71° W 20:28:38 71° W
Cosmos 489 Rocket 4.5 20:22:43 10° NNW 20:28:30 74° NNE 20:28:30 74° NNE
Meteor 2-10 Rocket 4.4 20:31:30 43° NNE 20:31:30 43° NNE 20:35:07 10° NNE
Cosmos 1821 Rocket 4.1 20:24:00 10° N 20:29:53 71° NE 20:29:53 71° NE
SPOT 5 4.2 20:36:47 33° NW 20:36:47 33° NW 20:39:25 10° NNW
CZ-4C R/B 3.6 20:29:08 10° NNW 20:35:44 43° NE 20:37:07 40° ENE
Cosmos 1697 Rocket 3.3 20:30:54 10° NNW 20:35:27 49° NNE 20:35:27 49° NNE
SL-16 R/B 4.2 20:46:27 10° N 20:50:14 18° NE 20:50:30 18° NE
Terra 3.3 20:55:01 34° NW 20:55:01 34° NW 20:57:58 10° NNW
Cosmos 2322 Rocket 4.2 20:56:26 10° N 21:00:10 18° NE 21:00:20 18° NE
Cosmos 1980 Rocket 3.2 20:59:17 10° NNW 21:03:10 40° N 21:03:10 40° N
USA 234 4.0 20:59:31 10° NE 21:05:46 50° NNW 21:12:01 10° W
ATLAS 5 CENTAUR R/B 4.4 21:21:16 10° WNW 21:24:19 17° NNW 21:27:38 10° NNE
Cosmos 2082 Rocket 3.9 21:33:29 26° NNE 21:33:29 26° NNE 21:35:54 10° NNE
Mayak 1.5 21:29:33 10° N 21:30:35 16° N 21:30:35 16° N
Cosmos 1833 Rocket 4.1 21:47:50 34° N 21:47:50 34° N 21:51:15 10° NNE
CZ-4C R/B 3.7 22:17:33 10° NW 22:22:17 43° WNW 22:22:17 43° WNW
SL-16 R/B 3.8 22:29:33 10° NNW 22:32:21 30° NNW 22:32:21 30° NNW
Cosmos 2360 Rocket 3.8 22:36:13 10° NNW 22:39:34 31° N 22:39:34 31° N
Cosmos 2322 Rocket 3.8 22:39:27 10° NNW 22:42:08 29° NNW 22:42:08 29° NNW
Cosmos 2333 Rocket 4.1 22:45:15 10° N 22:49:44 24° NE 22:49:56 23° NE
CZ-2D R/B 4.3 23:03:27 10° NE 23:05:54 19° ENE 23:05:54 19° ENE
Cosmos 2082 Rocket 4.2 23:15:17 21° NW 23:15:17 21° NW 23:19:15 10° N
SL-16 R/B 3.3 23:29:17 47° NE 23:29:17 47° NE 23:34:45 10° N
Cosmos 2219 Rocket 3.4 23:36:02 10° NNW 23:40:10 39° NNE 23:40:10 39° NNE
COSMOS 2428 3.6 23:48:25 10° NNW 23:52:46 45° NNE 23:52:46 45° NNE
